Station VENF1 - Venice, FL Image indicating link to RSS feed of recent meteorological observations for station VENF1


Conditions at VENF1 as of
(4:00 pm EDT)
2000 GMT on 04/23/2024:
     

Click on the graph icon in the table below to see a time series plot of the last five days of that observation.

5-day plot - Wind Direction Wind Direction (WDIR): W ( 270 deg true )
5-day plot - Wind Speed Wind Speed (WSPD): 10 kts
5-day plot - Wind Gust Wind Gust (GST): 11 kts
5-day plot - Atmospheric Pressure Atmospheric Pressure (PRES):30.10 in
5-day plot - Pressure Tendency Pressure Tendency (PTDY):-0.05 in ( Falling )
5-day plot - Air Temperature Air Temperature (ATMP): 73.0 °F
5-day plot - Water Temperature Water Temperature (WTMP): 76.1 °F
5-day plot - Dew Point Dew Point (DEWP): 54.9 °F
5-day plot - Wind Speed at 10 Meters Wind Speed at 10 meters (WSPD10M): 10 kts
5-day plot - Wind Speed at 20 Meters Wind Speed at 20 meters (WSPD20M): 10 kts
5-day plot -  Wind Speed, Wind Gust and Atmospheric Pressure Combined plot of Wind Speed, Gust, and Air Pressure
Continuous Winds
TIME
(EDT)
5-day plot - Wind Direction WDIR 5-day plot - Wind Speed WSPD
4:00 pmW ( 271 deg ) 10 kts
3:50 pmW ( 270 deg ) 10 kts
3:40 pmW ( 266 deg ) 11 kts
3:30 pmW ( 269 deg ) 11 kts
3:20 pmW ( 272 deg ) 10 kts
3:10 pmW ( 263 deg ) 9 kts
 
Peak gust during the measurement hour
TIME
(EDT)
5-day plot - Gust Direction GDR 5-day plot - Gust Speed GST
3:23 pmW ( 270 deg ) 13 kts
Previous observations
TIME
(EDT)
5-day plot - Wind Direction
WDIR
 
5-day plot - Wind Speed
WSPD
kts
5-day plot - Wind Gust
GST
kts
5-day plot - Wave Height
WVHT
ft
5-day plot - Dominant Wave Period
DPD
sec
5-day plot - Average Wave Period
APD
sec
5-day plot - Mean Wave Direction
MWD
 
5-day plot - Atmospheric Pressure
PRES
in
5-day plot - Pressure Tendency
PTDY
in
5-day plot - Air Temperature
ATMP
°F
5-day plot - Water Temperature
WTMP
°F
5-day plot - Dew Point
DEWP
°F
5-day plot - Salinity
SAL
psu
5-day plot - Visibility
VIS
nmi
5-day plot - Tide (above MLLW)
TIDE
ft
2024-04-23 03:00 pm W 9 10----30.12-0.05 73.0 76.1 54.0---
2024-04-23 02:00 pm W 9 10----30.14-0.04 72.9 76.1 53.4---
2024-04-23 01:00 pmESE 4 7----30.15-0.02 74.1 76.1 50.2---
2024-04-23 12:00 pmENE 7 9----30.17+0.01 72.3 76.1 50.4---
2024-04-23 11:00 amENE 7 9----30.17+0.04 69.3 76.1 49.1---
2024-04-23 10:00 am NE 10 12----30.17+0.06 67.6 76.1 48.4---
2024-04-23 09:00 amENE 10 12----30.15+0.06 63.9 76.1 50.5---
2024-04-23 08:00 am NE 7 9----30.13+0.04 60.8 75.9 51.6---
2024-04-23 07:00 am NE 11 14----30.11+0.03 59.9 75.9 51.4---
2024-04-23 06:00 am NE 11 14----30.09+0.00 60.4 75.9 52.0---
2024-04-23 05:00 am NE 12 14----30.09-0.01 60.8 75.9 52.9---
2024-04-23 04:00 am NE 11 14----30.08-0.03 61.5 75.9 54.0---
2024-04-23 03:00 am NE 10 14----30.09-0.02 62.1 75.9 55.0---
2024-04-23 02:00 am NE 11 16----30.10+0.02 63.0 75.9 55.2---
2024-04-23 01:00 am NE 12 15----30.11+0.05 64.4 75.9 55.0---
2024-04-23 12:00 amENE 10 16----30.11+0.07 66.0 75.9 57.0---
2024-04-22 11:00 pm N 9 10----30.08+0.07 68.7 75.9 60.3---
2024-04-22 10:00 pm N 9 11----30.06+0.07 69.4 75.9 59.5---
2024-04-22 09:00 pm N 12 15----30.03+0.05 70.5 75.9 61.9---
2024-04-22 08:00 pmNNW 20 24----30.01+0.02 70.9 75.9 60.3---
2024-04-22 07:00 pmNNW 23 26----29.99+0.00 71.2 75.9 59.9---
2024-04-22 06:00 pm NW 21 24----29.99-0.02 71.2 75.9 60.6---
2024-04-22 05:00 pm NW 21 22----29.98-0.03 70.7 75.9 60.3---
2024-04-22 04:00 pm NW 23 26----29.99-0.03 71.2 75.9 59.0---